CZ-3C DEB, 48545

Orbit data source: Space-Track

CZ-3C DEB, 48545 is space debris in HEO originally from a launch on Sun, 31 Oct 2010 UTC launched from the Xichang Space Center, China (XSC). Debris objects in space refer to the collection of defunct objects orbiting the Earth. Examples of debris include non-operational satellites, rocket bodies, and fragments generated from explosions, collisions, or faulty payload assembly.

Loading next visibility...
Identifier
48545, 2010-057BQ
Orbit
HEO
Country
Flag of CNCN / PRC
Related business
Manufacturer
CALT
Mission
Spacecraft
Bus & Motor
Unknown
Mass
Unknown
Launch date (UTC)
2010-10-31 (16 years ago)
Launch vehicle
Unknown
Launch site
Xichang Space Center, China (XSC)
Object type
Payload
Rocket body
Debris
Shape & HBR
Unknown shape, 0.2 m
Radar Cross Section
Medium (>0.1 m² and <1 m²)

Expand to show TLE details & history
Last TLE update: 21 hours ago

TLE from 21 hours ago
0 CZ-3C DEB
1 48545U 10057BQ  26171.16313683  .00024972  00000-0  76856-2 0  9995
2 48545  18.0755 325.7498 5576490 222.9786  76.6522  4.65504789127426
Epoch: 2026-06-20T03:54Z
TLE epoch observation values (Epoch: 2026-06-20T03:54:55.022Z)
Latitude
-0.00002°
Longitude
-1.35916°
Altitude
11,257.973 km
Speed
4.347 km/s
True Right ascension
21h 43m 00s
True Declination
0° 00' 00"
Sunlit
Object was in daylight at epoch
Visualization orbit readout
Latitude
Unknown
Longitude
Unknown
Altitude
Unknown
Speed
Unknown
Apparent Right ascension
Unknown
Apparent Declination
Unknown
Sunlit
N/A
Visualization observer readout
Local Sidereal Time
11:43:28
Azimuth
Unknown
Elevation
Unknown
Doppler factor
Unknown
Orbital elements
Apogee altitude
17,229.196 km
Perigee altitude
326.022 km
Semi-major axis
15,155.746 km
Eccentricity
0.55765
Inclination
18.0755°
RAAN
325.7498°
Arg. of periapsis
222.9786°
True anomaly
137.08546°
Mean anomaly
76.6522°
Eccentric anomaly
107.17788°
Mean motion
1.16326 °/min
Orbital period
309.47 mins
BSTAR
0.0076856
Loading maneuver chart data...
Computing Atmospheric mass density...
Loading historical data...
Loading historical data...
Loading historical data...
Loading historical data...
Loading historical data...
Loading historical data...
Loading historical data...

Documentation

Showing up to 5 results
|